sat.trackr.live / text

‹ back to catalog

STARLINK-5494

NORAD 55650 · 2023-021Y

PAYLOAD ACTIVE UNKNOWN

§ Identity

Operator
Country
US
Launch date
2023-02-17
Launch site
AFWTR
Launch vehicle
Mass (kg)
RCS (m²)

Purposes: comms

External: N2YO · Heavens-Above · Gunter

§ Orbital elements

Epoch: 2026-09-20T16:59:42.499392Z

Period
96.11 min
Inclination
69.9997°
Eccentricity
0.0002671
Mean motion
14.98337509 rev/d
Perigee alt
570.2 km
Apogee alt
573.9 km
Semi-major
6,950.2 km
B*
3.6842e-5
RAAN
52.7310°
Arg perigee
268.7651°
Mean anomaly
91.3202°
Rev number
19,800

§ Raw data

STARLINK-54941 55650U 23021Y   26263.70813078  .00000347  00000+0  36842-4 0  99922 55650  69.9997  52.7310 0002671 268.7651  91.3202 14.98337509198005

JSON: /api/v1/satellites/55650 · /tle

For live sub-satellite position, see the globe view (requires WebGL).

§ Visibility from observer

Set your observer location to see the next 7 days of passes ≥ 10°. The values pass through the URL so the page stays shareable.

No JS? Fill the form by hand. The geolocation button needs JavaScript.